GW0536 Weather Reports


time (UTC)temp
F
wind
direction
speed
knots
gust
knots
rain 1hr
in
rain 24hr
in
rain mn
in
humidity
%
barometer
mb
20260507201030 84 32 7.8 13.9 0.00 0.00 0.00 74 1014.8
20260507200530 84 5 7.0 13.9 0.00 0.00 0.00 74 1014.8
20260507200047 84 13 9.6 14.8 0.00 0.00 0.00 73 1014.8
20260507195529 84 360 8.7 14.8 0.00 0.00 0.00 73 1014.9
20260507195029 84 13 8.7 14.8 0.00 0.00 0.00 74 1015.0
20260507194611 84 20 7.8 13.9 0.00 0.00 0.00 74 1015.1
20260507194029 84 14 7.8 13.9 0.00 0.00 0.00 74 1015.1
20260507193530 84 37 7.8 13.9 0.00 0.00 0.00 74 1015.1
20260507193041 84 346 7.8 15.6 0.00 0.00 0.00 74 1015.1
20260507192533 84 39 8.7 15.6 0.00 0.00 0.00 74 1015.0
20260507192030 84 5 9.6 15.6 0.00 0.00 0.00 74 1015.1
20260507191549 85 36 7.8 17.4 0.00 0.00 0.00 73 1015.1
20260507191030 85 34 9.6 17.4 0.00 0.00 0.00 73 1015.1
20260507190530 85 19 9.6 14.8 0.00 0.00 0.00 73 1015.1
20260507190051 85 36 8.7 15.6 0.00 0.00 0.00 73 1015.1
20260507185529 85 9 9.6 15.6 0.00 0.00 0.00 73 1015.1
20260507185029 85 32 9.6 15.6 0.00 0.00 0.00 73 1015.2
20260507184541 85 352 9.6 15.6 0.00 0.00 0.00 73 1015.2
20260507184030 85 5 7.8 14.8 0.00 0.00 0.00 74 1015.2
20260507183532 85 9 8.7 14.8 0.00 0.00 0.00 73 1015.2
20260507183047 85 24 8.7 14.8 0.00 0.00 0.00 73 1015.2
20260507182532 85 14 9.6 14.8 0.00 0.00 0.00 73 1015.4
20260507182032 85 30 8.7 14.8 0.00 0.00 0.00 74 1015.3
20260507181551 85 32 7.8 14.8 0.00 0.00 0.00 73 1015.5
20260507181035 85 41 7.8 13.9 0.00 0.00 0.00 74 1015.6
20260507180529 85 15 8.7 13.9 0.00 0.00 0.00 75 1015.6
20260507180045 85 338 8.7 15.6 0.00 0.00 0.00 75 1015.6
20260507175532 85 20 9.6 15.6 0.00 0.00 0.00 74 1015.7
20260507175032 85 350 7.8 15.6 0.00 0.00 0.00 75 1015.8
20260507174554 85 15 8.7 16.5 0.00 0.00 0.00 74 1015.8
20260507174031 85 345 9.6 16.5 0.00 0.00 0.00 73 1015.7
20260507173532 85 338 9.6 17.4 0.00 0.00 0.00 73 1015.8
20260507173113 85 9 9.6 17.4 0.00 0.00 0.00 73 1015.8
20260507172533 85 49 7.8 14.8 0.00 0.00 0.00 73 1016.1
20260507172032 85 327 8.7 14.8 0.00 0.00 0.00 73 1016.2
20260507171549 85 22 9.6 14.8 0.00 0.00 0.00 73 1016.2
20260507171032 85 360 8.7 14.8 0.00 0.00 0.00 73 1016.3
20260507170533 85 17 8.7 14.8 0.00 0.00 0.00 73 1016.4
20260507170044 85 26 8.7 14.8 0.00 0.00 0.00 72 1016.5
20260507165532 85 12 8.7 17.4 0.00 0.00 0.00 73 1016.6
20260507165030 85 5 10.4 17.4 0.00 0.00 0.00 72 1016.6
20260507164554 85 49 8.7 14.8 0.00 0.00 0.00 73 1016.6
20260507164030 85 31 8.7 14.8 0.00 0.00 0.00 74 1016.6
20260507163529 85 15 9.6 14.8 0.00 0.00 0.00 73 1016.8
20260507163048 85 352 8.7 13.9 0.00 0.00 0.00 74 1016.9
20260507162532 85 360 8.7 13.9 0.00 0.00 0.00 73 1016.9
20260507162035 85 343 9.6 14.8 0.00 0.00 0.00 73 1017.0
20260507161603 85 38 9.6 14.8 0.00 0.00 0.00 74 1017.1
20260507161032 85 5 7.8 13.0 0.00 0.00 0.00 75 1017.1
20260507160533 85 360 8.7 13.9 0.00 0.00 0.00 75 1017.2
20260507160050 85 335 7.8 13.9 0.00 0.00 0.00 75 1017.2
20260507155532 85 18 9.6 13.9 0.00 0.00 0.00 74 1017.2
20260507155032 85 360 7.0 13.9 0.00 0.00 0.00 75 1017.2
20260507154550 85 30 7.8 13.9 0.00 0.00 0.00 76 1017.3
20260507154033 85 360 8.7 14.8 0.00 0.00 0.00 76 1017.2
20260507153533 85 32 7.8 14.8 0.00 0.00 0.00 76 1017.2
20260507153043 84 12 7.8 13.0 0.00 0.00 0.00 76 1017.3
20260507152530 84 352 7.8 13.0 0.00 0.00 0.00 76 1017.3
20260507152030 84 5 8.7 13.9 0.00 0.00 0.00 75 1017.3
20260507151546 85 331 8.7 13.9 0.00 0.00 0.00 75 1017.3
20260507151028 85 15 8.7 13.9 0.00 0.00 0.00 75 1017.3
20260507150533 85 10 7.8 14.8 0.00 0.00 0.00 74 1017.3
20260507150050 84 352 8.7 14.8 0.00 0.00 0.00 73 1017.2
20260507145529 84 49 7.8 13.9 0.00 0.00 0.00 73 1017.3
20260507145029 84 344 8.7 13.9 0.00 0.00 0.00 73 1017.3
20260507144548 84 11 8.7 13.9 0.00 0.00 0.00 74 1017.3
20260507144029 84 352 7.0 13.0 0.00 0.00 0.00 75 1017.2
20260507143529 84 22 7.8 13.0 0.00 0.00 0.00 75 1017.3
20260507143047 84 36 7.8 13.0 0.00 0.00 0.00 75 1017.3
20260507142529 84 20 7.8 13.0 0.00 0.00 0.00 76 1017.4
20260507142029 84 17 7.8 13.0 0.00 0.00 0.00 75 1017.5
20260507141551 83 5 7.8 13.9 0.00 0.00 0.00 75 1017.5
20260507141034 83 17 7.0 13.9 0.00 0.00 0.00 75 1017.5
20260507140530 83 21 8.7 13.9 0.00 0.00 0.00 75 1017.4
20260507140042 84 11 7.8 12.2 0.00 0.00 0.00 75 1017.4
20260507135530 83 17 7.0 12.2 0.00 0.00 0.00 75 1017.4
20260507135030 83 352 8.7 12.2 0.00 0.00 0.00 75 1017.4
20260507134545 83 20 7.8 11.3 0.00 0.00 0.00 75 1017.5
20260507134031 83 360 7.8 11.3 0.00 0.00 0.00 75 1017.5
20260507133534 83 5 7.0 11.3 0.00 0.00 0.00 75 1017.5
20260507133046 83 346 5.2 10.4 0.00 0.00 0.00 76 1017.5
20260507132534 83 21 5.2 10.4 0.00 0.00 0.00 76 1017.5
20260507132030 82 26 5.2 9.6 0.00 0.00 0.00 76 1017.4
20260507131542 82 352 5.2 9.6 0.00 0.00 0.00 76 1017.4
20260507131032 82 5 6.1 10.4 0.00 0.00 0.00 76 1017.4
20260507130532 81 352 6.1 10.4 0.00 0.00 0.00 76 1017.4
20260507130045 81 352 5.2 10.4 0.00 0.00 0.00 75 1017.4
20260507125532 82 26 6.1 9.6 0.00 0.00 0.00 75 1017.4
20260507125029 82 21 5.2 8.7 0.00 0.00 0.00 75 1017.3
20260507124543 81 360 6.1 9.6 0.00 0.00 0.00 74 1017.2
20260507124029 82 348 5.2 10.4 0.00 0.00 0.00 74 1017.2
20260507123531 82 349 7.0 10.4 0.00 0.00 0.00 73 1017.2
20260507123048 82 9 6.1 9.6 0.00 0.00 0.00 73 1017.1
20260507122530 82 322 6.1 8.7 0.00 0.00 0.00 74 1017.0
20260507122030 82 352 2.6 4.3 0.00 0.00 0.00 74 1016.9
20260507121545 81 332 0.9 6.1 0.00 0.00 0.00 75 1016.9
20260507121031 80 9 1.7 6.1 0.00 0.00 0.00 75 1016.7
20260507120529 80 105 0.0 4.3 0.00 0.00 0.00 76 1016.7
20260507120056 79 360 1.7 5.2 0.00 0.00 0.00 77 1016.7
20260507115530 79 101 1.7 5.2 0.00 0.00 0.00 77 1016.6
20260507115030 78 120 0.9 3.5 0.00 0.00 0.00 79 1016.6
20260507114544 78 69 0.9 4.3 0.00 0.00 0.00 79 1016.5
20260507114029 77 26 0.0 4.3 0.00 0.00 0.00 80 1016.4
20260507113529 77 20 1.7 4.3 0.00 0.00 0.00 81 1016.4
20260507113049 76 0 0.9 4.3 0.00 0.00 0.00 82 1016.3
20260507112529 76 5 0.9 3.5 0.00 0.00 0.00 82 1016.3
20260507112032 75 18 0.9 3.5 0.00 0.00 0.00 83 1016.2
20260507111543 75 0 0.0 3.5 0.00 0.00 0.00 83 1016.2
20260507111032 74 5 0.0 3.5 0.00 0.00 0.00 84 1016.3
20260507110530 74 0 0.0 3.5 0.00 0.00 0.00 84 1016.2
20260507110047 74 31 0.0 0.0 0.00 0.00 0.00 84 1016.2
20260507105532 73 0 0.0 2.6 0.00 0.00 0.00 84 1016.3
20260507105031 73 0 0.0 3.5 0.00 0.00 0.00 84 1016.2
20260507104545 73 30 0.9 3.5 0.00 0.00 0.00 84 1016.2
20260507104032 73 0 0.0 2.6 0.00 0.00 0.00 83 1016.2
20260507103529 72 0 0.0 2.6 0.00 0.00 0.00 83 1016.2
20260507103046 72 0 0.0 1.7 0.00 0.00 0.00 83 1016.2
20260507102531 72 0 0.0 0.9 0.00 0.00 0.00 83 1016.2
20260507102032 72 0 0.0 0.0 0.00 0.00 0.00 83 1016.2
20260507101542 72 0 0.0 1.7 0.00 0.00 0.00 83 1016.2
20260507101031 72 0 0.0 1.7 0.00 0.00 0.00 83 1016.1
20260507100530 72 0 0.0 2.6 0.00 0.00 0.00 83 1016.0
20260507100043 72 0 0.0 3.5 0.00 0.00 0.00 83 1015.9
20260507095532 72 0 0.0 4.3 0.00 0.00 0.00 83 1015.9
20260507095032 72 0 1.7 4.3 0.00 0.00 0.00 83 1015.8
20260507094553 72 0 0.0 2.6 0.00 0.00 0.00 83 1015.8
20260507094032 72 0 0.0 2.6 0.00 0.00 0.00 83 1015.7
20260507093531 72 69 0.0 2.6 0.00 0.00 0.00 83 1015.7
20260507093046 72 0 0.0 1.7 0.00 0.00 0.00 83 1015.6
20260507092550 72 0 0.0 1.7 0.00 0.00 0.00 83 1015.6
20260507092031 72 201 0.0 1.7 0.00 0.00 0.00 83 1015.6
20260507091546 73 0 0.0 2.6 0.00 0.00 0.00 83 1015.6
20260507091031 73 0 0.0 2.6 0.00 0.00 0.00 83 1015.6
20260507090530 73 92 0.9 2.6 0.00 0.00 0.00 83 1015.6
20260507090045 73 88 0.0 2.6 0.00 0.00 0.00 82 1015.7
20260507085529 73 101 0.0 3.5 0.00 0.00 0.00 82 1015.8
20260507085029 73 0 0.0 3.5 0.00 0.00 0.00 82 1015.9
20260507084542 73 0 0.0 3.5 0.00 0.00 0.00 82 1015.9
20260507084031 73 36 0.0 1.7 0.00 0.00 0.00 82 1016.0
20260507083532 73 0 0.0 0.0 0.00 0.00 0.00 82 1015.9
20260507083042 73 0 0.0 2.6 0.00 0.00 0.00 81 1015.9
20260507082528 74 0 0.0 2.6 0.00 0.00 0.00 81 1015.9
20260507082033 74 91 0.0 0.9 0.00 0.00 0.00 81 1015.9
20260507081548 74 0 0.0 1.7 0.00 0.00 0.00 81 1015.9
20260507081030 74 0 0.0 1.7 0.00 0.00 0.00 81 1015.8
20260507080535 74 0 0.0 0.9 0.00 0.00 0.00 81 1015.9
20260507080056 74 0 0.0 3.5 0.00 0.00 0.00 81 1015.8
20260507075532 74 0 0.0 3.5 0.00 0.00 0.00 80 1015.8
20260507075032 74 0 0.0 2.6 0.00 0.00 0.00 80 1015.9
20260507074548 74 58 0.0 2.6 0.00 0.00 0.00 80 1015.7
20260507074031 75 78 0.0 0.9 0.00 0.00 0.00 80 1015.8
20260507073532 75 0 0.0 1.7 0.00 0.00 0.00 80 1015.7
20260507073107 75 0 0.0 3.5 0.00 0.00 0.00 80 1015.8
20260507072532 75 0 0.0 5.2 0.00 0.00 0.00 80 1015.8
20260507072030 75 122 0.0 5.2 0.00 0.00 0.00 80 1015.8
20260507071546 75 360 2.6 6.1 0.00 0.00 0.00 80 1015.9
20260507071030 75 144 2.6 7.0 0.00 0.00 0.00 81 1015.9
20260507070531 75 360 2.6 7.0 0.00 0.00 0.00 81 1015.9
20260507070045 75 135 2.6 7.0 0.00 0.00 0.00 81 1015.9
20260507065530 74 360 2.6 5.2 0.00 0.00 0.00 81 1016.1
20260507065032 75 104 1.7 3.5 0.00 0.00 0.00 81 1016.1
20260507064601 75 111 0.0 3.5 0.00 0.00 0.00 81 1016.2
20260507064032 75 94 0.0 2.6 0.00 0.00 0.00 81 1016.2
20260507063530 75 82 0.0 1.7 0.00 0.00 0.00 81 1016.3
20260507063052 75 0 0.0 2.6 0.00 0.00 0.00 81 1016.4
20260507062531 75 0 0.0 2.6 0.00 0.00 0.00 81 1016.4
20260507062029 75 113 0.0 0.0 0.00 0.00 0.00 81 1016.4
20260507061549 75 0 0.0 1.7 0.00 0.00 0.00 80 1016.4
20260507061032 75 0 0.0 1.7 0.00 0.00 0.00 80 1016.5
20260507060532 75 0 0.0 3.5 0.00 0.00 0.00 80 1016.6
20260507060041 75 0 0.0 5.2 0.00 0.00 0.00 81 1016.6
20260507055532 75 360 0.9 5.2 0.00 0.00 0.00 81 1016.8
20260507055029 75 119 1.7 5.2 0.00 0.00 0.00 81 1016.8
20260507054546 76 117 1.7 4.3 0.00 0.00 0.00 81 1016.8
20260507054032 75 121 1.7 5.2 0.00 0.00 0.00 81 1016.8
20260507053532 76 360 1.7 5.2 0.00 0.00 0.00 81 1017.0
20260507053043 76 252 1.7 6.1 0.00 0.00 0.00 81 1017.1
20260507052529 76 108 1.7 6.1 0.00 0.00 0.00 81 1017.1
20260507052031 76 105 1.7 5.2 0.00 0.00 0.00 81 1017.1
20260507051545 76 104 0.9 3.5 0.00 0.00 0.00 81 1017.2
20260507051032 76 0 0.0 1.7 0.00 0.00 0.00 81 1017.3
20260507050530 76 0 0.0 1.7 0.00 0.00 0.00 81 1017.4
20260507050044 76 0 0.0 3.5 0.00 0.00 0.00 81 1017.4
20260507045530 76 0 0.0 3.5 0.00 0.00 0.00 81 1017.5
20260507045031 76 115 0.0 3.5 0.00 0.00 0.00 81 1017.5
20260507044550 76 28 0.0 5.2 0.00 0.00 0.00 81 1017.5
20260507044030 76 0 0.0 6.1 0.00 0.00 0.00 81 1017.6
20260507043529 77 120 3.5 6.1 0.00 0.00 0.00 82 1017.6
20260507043049 77 117 1.7 6.1 0.00 0.00 0.00 82 1017.6
20260507042529 77 108 1.7 6.1 0.00 0.00 0.00 82 1017.6
20260507042030 77 0 0.9 6.1 0.00 0.00 0.00 83 1017.7
20260507041548 77 113 2.6 6.1 0.00 0.00 0.00 83 1017.7
20260507041032 77 0 0.0 5.2 0.00 0.00 0.00 83 1017.7
20260507040530 78 0 0.0 5.2 0.00 0.00 0.00 83 1017.8
20260507040048 78 51 0.9 4.3 0.00 0.00 0.00 83 1017.8
20260507035529 78 23 0.9 6.1 0.00 0.00 0.00 83 1017.9
20260507035030 79 0 0.9 6.1 0.00 0.00 0.00 84 1017.9
20260507034554 79 69 0.9 5.2 0.00 0.00 0.00 84 1017.9
20260507034029 79 108 0.9 3.5 0.00 0.00 0.00 84 1017.9
20260507033529 79 0 0.0 3.5 0.00 0.00 0.00 84 1017.8
20260507033101 79 23 0.9 6.1 0.00 0.00 0.00 84 1017.9
20260507032531 79 82 0.9 6.1 0.00 0.00 0.00 84 1017.9
20260507032029 80 117 1.7 6.1 0.00 0.00 0.00 83 1017.9
20260507031548 80 111 1.7 7.0 0.00 0.00 0.00 83 1017.9
20260507031029 80 124 0.9 7.0 0.00 0.00 0.00 83 1017.9
20260507030531 80 75 1.7 7.0 0.00 0.00 0.00 83 1017.9
20260507030046 80 119 1.7 6.1 0.00 0.00 0.00 83 1018.0
20260507025531 80 111 3.5 6.1 0.00 0.00 0.00 83 1017.9
20260507025030 81 117 1.7 6.1 0.00 0.00 0.00 83 1017.9
20260507024554 81 136 2.6 6.1 0.00 0.00 0.00 83 1017.9
20260507024030 81 138 3.5 6.1 0.00 0.00 0.00 83 1017.8
20260507023529 81 0 2.6 6.1 0.00 0.00 0.00 83 1017.8
20260507023043 81 116 1.7 6.1 0.00 0.00 0.00 83 1017.8
20260507022532 81 146 2.6 6.1 0.00 0.00 0.00 83 1017.8
20260507022032 82 145 2.6 6.1 0.00 0.00 0.00 83 1017.8
20260507021543 82 233 0.9 2.6 0.00 0.00 0.00 83 1017.7
20260507021034 82 233 0.9 2.6 0.00 0.00 0.00 83 1017.7
20260507020530 82 0 0.9 2.6 0.00 0.00 0.00 83 1017.5
20260507020045 82 266 0.0 2.6 0.00 0.00 0.00 83 1017.6
20260507015532 82 0 0.0 2.6 0.00 0.00 0.00 83 1017.5
20260507015029 82 273 0.9 3.5 0.00 0.00 0.00 83 1017.5
20260507014542 82 273 0.0 3.5 0.00 0.00 0.00 83 1017.4
20260507014029 82 273 1.7 3.5 0.00 0.00 0.00 83 1017.3
20260507013532 82 248 1.7 5.2 0.00 0.00 0.00 83 1017.3
20260507013040 82 273 2.6 5.2 0.00 0.00 0.00 83 1017.2
20260507012530 82 360 1.7 5.2 0.00 0.00 0.00 83 1017.2
20260507012030 82 282 1.7 6.1 0.00 0.00 0.00 83 1017.2
20260507011545 82 278 1.7 6.1 0.00 0.00 0.00 83 1017.1
20260507011029 82 257 1.7 6.1 0.00 0.00 0.00 83 1017.1
20260507010533 82 248 2.6 7.0 0.00 0.00 0.00 83 1017.1
20260507010052 82 280 2.6 7.0 0.00 0.00 0.00 83 1017.1
20260507005530 82 360 1.7 6.1 0.00 0.00 0.00 83 1017.1
20260507005029 82 360 2.6 6.1 0.00 0.00 0.00 82 1017.1
20260507004544 82 360 2.6 6.1 0.00 0.00 0.00 82 1017.1
20260507004030 82 360 2.6 5.2 0.00 0.00 0.00 82 1017.1
20260507003530 82 360 2.6 5.2 0.00 0.00 0.00 82 1017.0
20260507003045 82 284 1.7 7.0 0.00 0.00 0.00 82 1017.0
20260507002529 82 360 2.6 7.0 0.00 0.00 0.00 82 1016.9
20260507002029 82 244 1.7 7.0 0.00 0.00 0.00 82 1016.9
20260507001605 82 360 3.5 7.8 0.00 0.00 0.00 82 1016.8
20260507001029 82 360 3.5 7.8 0.00 0.00 0.00 82 1016.8
20260507000530 82 289 3.5 7.8 0.00 0.00 0.00 82 1016.8
20260507000045 82 285 3.5 8.7 0.00 0.00 0.00 82 1016.8
20260506235531 82 360 3.5 8.7 0.00 0.00 0.00 82 1016.7
20260506235029 82 360 2.6 8.7 0.00 0.00 0.00 81 1016.7
20260506234556 82 267 3.5 8.7 0.00 0.00 0.00 81 1016.7
20260506234030 82 360 2.6 7.0 0.00 0.00 0.00 81 1016.5
20260506233530 82 360 3.5 7.8 0.00 0.00 0.00 81 1016.6
20260506233044 82 360 3.5 7.8 0.00 0.00 0.00 81 1016.6
20260506232530 82 273 2.6 8.7 0.00 0.00 0.00 80 1016.5
20260506232032 82 360 3.5 9.6 0.00 0.00 0.00 80 1016.5
20260506231545 82 360 3.5 9.6 0.00 0.00 0.00 80 1016.5
20260506231030 82 296 3.5 7.8 0.00 0.00 0.00 79 1016.4
20260506230529 83 292 3.5 7.0 0.00 0.00 0.00 79 1016.3
20260506230049 82 360 2.6 7.0 0.00 0.00 0.00 78 1016.3
20260506225531 83 360 3.5 7.0 0.00 0.00 0.00 78 1016.3
20260506225030 83 360 3.5 7.0 0.00 0.00 0.00 78 1016.2
20260506224603 83 360 3.5 7.8 0.00 0.00 0.00 77 1016.2
20260506224033 83 360 2.6 7.8 0.00 0.00 0.00 77 1016.1
20260506223529 83 360 2.6 7.0 0.00 0.00 0.00 76 1016.1
20260506223046 84 360 3.5 7.0 0.00 0.00 0.00 76 1015.9
20260506222530 84 360 3.5 7.0 0.00 0.00 0.00 76 1015.9
20260506222034 84 360 2.6 7.0 0.00 0.00 0.00 75 1015.9
20260506221545 84 275 1.7 7.0 0.00 0.00 0.00 75 1016.0
20260506221029 85 309 2.6 7.0 0.00 0.00 0.00 75 1015.9
20260506220530 85 360 2.6 7.0 0.00 0.00 0.00 75 1015.8
20260506220059 85 290 2.6 7.0 0.00 0.00 0.00 75 1015.7
20260506215529 85 327 1.7 7.0 0.00 0.00 0.00 74 1015.7
20260506215029 85 352 1.7 7.0 0.00 0.00 0.00 74 1015.7
20260506214542 86 308 1.7 5.2 0.00 0.00 0.00 74 1015.7
20260506214033 86 321 1.7 5.2 0.00 0.00 0.00 74 1015.7
20260506213529 86 332 2.6 5.2 0.00 0.00 0.00 74 1015.7
20260506213045 85 346 1.7 7.8 0.00 0.00 0.00 74 1015.7
20260506212530 85 328 4.3 7.8 0.00 0.00 0.00 74 1015.6
20260506212030 86 329 2.6 6.1 0.00 0.00 0.00 74 1015.6
20260506211553 86 360 2.6 7.8 0.00 0.00 0.00 74 1015.5
20260506211030 86 304 2.6 7.8 0.00 0.00 0.00 73 1015.5
20260506210530 86 288 3.5 7.8 0.00 0.00 0.00 74 1015.5
20260506210046 86 336 2.6 7.0 0.00 0.00 0.00 74 1015.5
20260506205533 86 304 2.6 7.0 0.00 0.00 0.00 74 1015.6
20260506205033 85 350 3.5 7.8 0.00 0.00 0.00 74 1015.4
20260506204542 85 333 3.5 8.7 0.00 0.00 0.00 74 1015.4
20260506204033 85 17 5.2 8.7 0.00 0.00 0.00 74 1015.4
20260506203533 85 18 3.5 8.7 0.00 0.00 0.00 74 1015.4
20260506203041 85 352 4.3 8.7 0.00 0.00 0.00 74 1015.4
20260506202529 85 333 3.5 8.7 0.00 0.00 0.00 74 1015.4
20260506202029 85 352 5.2 8.7 0.00 0.00 0.00 74 1015.5
20260506201539 85 360 4.3 8.7 0.00 0.00 0.00 74 1015.5